[[{"header":{"parameterUnit":"m.s-1","parameterCategory":1,"la1":30.2991,"la2":30.254,"lo1":-89.0895,"lo2":-89.0444,"dy":0.0017,"dx":0.0017,"nx":28,"ny":28,"refTime":"2025-04-18T09:00:00:Z","depth":0,"parameterNumber":2,"parameterNumberName":"U-component_of_WINDS"},"data":[0,0,0,0,0,0,0,0,0,0,0,0,0,0,0,0,0,0,0,0,0,0,0,0,0,0,0,0,0,0,0,0,0,0,0,0,0,0,0,0,0,0,0,0,0,0,0,0,0,0,0,0,0,0,0,0,0,0,-5.675,-5.6751,0,-5.684,-5.6841,-5.6842,-5.6767,-5.6763,-5.676,-5.6757,-5.6846,-5.6851,-5.6856,0,0,0,0,0,0,0,0,0,0,0,0,0,-5.6511,-5.6516,-5.675,-5.6751,-5.6752,-5.6839,-5.6841,-5.6842,-5.6767,-5.6763,-5.6759,-5.6756,-5.6844,-5.685,-5.6857,0,0,0,0,0,0,0,0,0,0,0,0,0,-5.6609,-5.6518,-5.675,-5.6726,-5.6724,-5.6839,-5.6841,-5.6842,-5.6768,-5.6763,-5.6758,-5.6754,-5.6842,-5.685,-5.6858,-5.7,0,0,-5.6882,-5.6885,0,0,0,0,0,0,0,0,-5.6604,-5.6618,-5.6728,-5.6728,-5.6726,-5.6787,-5.6789,-5.6895,-5.6769,-5.6751,-5.6757,-5.6752,-5.683,-5.6839,-5.6865,-5.7004,-5.7008,-5.6882,-5.6887,-5.6891,-5.6893,0,0,0,0,0,0,0,-5.6597,-5.6614,-5.6785,-5.673,-5.6729,-5.6709,-5.6718,-5.6809,-5.6816,-5.6752,-5.6747,-5.6759,-5.6828,-5.6858,-5.6867,-5.7009,-5.6882,-5.6889,-5.6894,-5.6897,-5.7267,-5.7272,0,0,0,0,0,0,-5.6593,-5.6609,-5.6783,-5.6788,-5.6652,-5.6717,-5.6727,-5.6772,-5.6815,-5.6817,-5.6763,-5.6755,-5.6847,-5.6858,-5.687,-5.7037,-5.689,-5.6898,-5.6902,-5.7262,-5.7269,-5.7274,0,0,0,0,0,0,-5.6588,-5.661,-5.6779,-5.6697,-5.6717,-5.6726,-5.6778,-5.6777,-5.6806,-5.6822,-5.6823,-5.6792,-5.6844,-5.6859,-5.6968,-5.7039,-5.6901,-5.6909,-5.7256,-5.7264,-5.7271,-5.7375,0,0,0,0,0,0,-5.6582,-5.6608,-5.6663,-5.6699,-5.6722,-5.6877,-5.6782,-5.6782,-5.682,-5.6811,-5.685,-5.6852,-5.6841,-5.6957,-5.6976,-5.7048,-5.6915,-5.725,-5.726,-5.7269,-5.7365,-5.7385,-5.7403,0,0,0,0,0,-5.6574,-5.6689,-5.6666,-5.6688,-5.6791,-5.6881,-5.6894,-5.688,-5.6826,-5.6881,-5.6891,-5.6851,-5.7029,-5.6968,-5.6989,-5.7065,-5.7245,-5.7257,-5.7268,-5.7357,-5.7382,-5.7402,0,0,0,0,0,0,-5.666,-5.6693,-5.6668,-5.6799,-5.6838,-5.6868,-5.6937,-5.6907,-5.6961,-5.695,-5.693,-5.694,-5.7054,-5.7071,-5.7003,-5.7204,-5.7128,-5.7145,-5.7189,-5.7212,-5.7231,-5.7223,-5.6921,0,0,0,0,0,-5.6695,-5.6766,-5.6791,-5.6903,-5.6924,-5.6928,-5.6966,-5.6953,-5.6992,-5.7007,-5.7026,-5.7065,-5.7129,-5.7172,-5.7233,-5.7369,-5.7374,-5.7431,-5.7449,-5.7465,-5.7478,-5.7549,-5.7573,-5.7312,-5.7312,-5.7311,0,0,-5.6766,-5.6793,-5.6839,-5.6921,-5.695,-5.7023,-5.6942,-5.7023,-5.7076,-5.7019,-5.7123,-5.7139,-5.718,-5.7303,-5.7358,-5.732,-5.7552,-5.7479,-5.7491,-5.7496,-5.7563,-5.7588,-5.761,-5.7319,-5.7318,-5.7317,0,0,-5.6932,-5.6961,-5.7057,-5.7088,-5.7133,-5.7134,-5.7157,-5.7193,-5.7201,-5.7305,-5.7263,-5.7327,-5.7439,-5.747,-5.75,-5.768,-5.7643,-5.77,-5.7796,-5.7866,-5.7886,-5.7904,-5.7965,-5.7988,-5.7714,-5.7714,-5.7714,0,-5.7015,-5.7125,-5.711,-5.7194,-5.723,-5.7184,-5.728,-5.731,-5.7372,-5.7398,-5.7355,-5.7495,-5.752,-5.7648,-5.7692,-5.7719,-5.7743,-5.7694,-5.7885,-5.7903,-5.7919,-5.7977,-5.8001,-5.7721,-5.772,-5.7719,-5.7719,0,-5.7222,-5.7299,-5.7371,-5.7433,-5.7478,-5.7568,-5.7565,-5.7613,-5.7595,-5.7601,-5.7707,-5.7736,-5.78,-5.783,-5.7814,-5.7956,-5.7931,-5.7888,-5.781,-5.7951,-5.8005,-5.8027,-5.773,-5.7727,-5.7726,-5.7724,0,0,-5.7444,-5.7497,-5.7523,-5.755,-5.7597,-5.7655,-5.7742,-5.7806,-5.7846,-5.7891,-5.7962,-5.8059,-5.8018,-5.8053,-5.804,-5.8101,-5.8238,-5.8049,-5.805,-5.8081,-5.8394,-5.8424,-5.845,-5.8216,-5.822,-5.8223,-5.8389,0,-5.7611,-5.7763,-5.7752,-5.7895,-5.7964,-5.7922,-5.7997,-5.8033,-5.8041,-5.81,-5.8109,-5.8176,-5.8119,-5.814,-5.8199,-5.8209,-5.83,-5.8197,-5.8279,-5.8282,-5.8267,-5.8479,-5.8512,-5.8667,-5.8411,-5.8414,-5.8417,0,-5.7825,-5.7877,-5.8027,-5.8062,-5.8091,-5.8159,-5.8216,-5.8274,-5.8314,-5.8315,-5.8355,-5.8331,-5.8417,-5.8341,-5.8458,-5.8389,-5.8422,-5.8432,-5.8438,-5.8442,-5.8356,-5.8486,-5.8716,-5.8738,-5.8451,-5.8448,-5.8445,0,-5.7968,-5.8076,-5.8179,-5.8204,-5.8248,-5.8297,-5.8317,-5.8352,-5.8391,-5.8442,-5.8466,-5.8526,-5.8558,-5.8604,-5.8597,-5.8542,-5.8716,-5.8639,-5.8717,-5.8718,-5.8753,-5.8751,-5.8989,-5.878,-5.878,-5.8779,-5.8779,0,-5.8153,-5.8246,-5.8244,-5.8307,-5.8409,-5.8397,-5.8498,-5.8512,-5.8544,-5.8608,-5.8576,-5.8636,-5.8625,-5.8685,-5.868,-5.8777,-5.8792,-5.8794,-5.8791,-5.8796,-5.8795,-5.8815,-5.8802,-5.8786,-5.8784,-5.8783,-5.8782,0,-5.8329,-5.8332,-5.8441,-5.8474,-5.8485,-5.8558,-5.8586,-5.8645,-5.8651,-5.8732,-5.8751,-5.8759,-5.8828,-5.8827,-5.8906,-5.8902,-5.902,-5.9006,-5.9007,-5.9003,-5.908,-5.9072,-5.9337,-5.937,-5.9143,-5.9145,-5.9147,0,-5.8445,-5.8516,-5.8556,-5.8597,-5.8621,-5.8688,-5.8728,-5.8718,-5.876,-5.8811,-5.8863,-5.893,-5.8982,-5.9095,-5.9107,-5.9167,-5.9152,-5.9241,-5.916,-5.9162,-5.915,-5.9144,-5.915,-5.9255,-5.9258,-5.926,-5.9262,0,-5.8651,-5.8649,-5.8708,-5.8768,-5.8816,-5.8863,-5.8905,-5.894,-5.8935,-5.8984,-5.9055,-5.9096,-5.9177,-5.9242,-5.93,-5.9319,-5.9289,-5.9288,-5.9308,-5.9312,-5.9308,-5.9308,-5.9046,-5.9281,-5.9279,-5.9277,-5.9276,-5.9276,-5.8798,-5.8858,-5.8896,-5.8963,-5.8994,-5.9034,-5.9091,-5.9104,-5.9163,-5.9228,-5.9219,-5.9298,-5.9335,-5.9409,-5.9434,-5.9494,-5.9462,-5.9493,-5.95,-5.9507,-5.9515,-5.9301,-5.9505,-5.9504,-5.9504,-5.9503,-5.9503,0,-5.9,-5.9022,-5.9084,-5.9144,-5.9197,-5.9166,-5.9211,-5.9256,-5.9326,-5.9364,-5.9416,-5.9497,-5.956,-5.9578,-5.9639,-5.9684,-5.9672,-5.97,-5.9695,-5.9699,-5.9541,-5.9515,-5.9709,-5.9709,-5.9709,-5.9709,-5.9709,-5.9708,-5.911,-5.9209,-5.9212,-5.9325,-5.9347,-5.9424,-5.9452,-5.9489,-5.9518,-5.961,-5.9663,-5.9675,-5.9704,-5.9767,-5.9823,-5.9827,-5.9849,-5.9883,-5.9881,-5.9732,-5.9711,-5.9691,-5.9667,-5.9889,-5.9889,-6.0034,-6.0035,-6.0036]},{"header":{"parameterUnit":"m.s-1","parameterCategory":1,"la1":30.2991,"la2":30.254,"lo1":-89.0895,"lo2":-89.0444,"dy":0.0017,"dx":0.0017,"nx":28,"ny":28,"refTime":"2025-04-18T09:00:00:Z","depth":0,"parameterNumber":3,"parameterNumberName":"V-component_of_WINDS"},"data":[0,0,0,0,0,0,0,0,0,0,0,0,0,0,0,0,0,0,0,0,0,0,0,0,0,0,0,0,0,0,0,0,0,0,0,0,0,0,0,0,0,0,0,0,0,0,0,0,0,0,0,0,0,0,0,0,0,0,2.9001,2.9002,0,2.9047,2.9048,2.9048,2.9031,2.903,2.9029,2.9028,2.9072,2.9074,2.9076,0,0,0,0,0,0,0,0,0,0,0,0,0,2.8896,2.8898,2.9001,2.9002,2.9002,2.9047,2.9048,2.9049,2.9032,2.903,2.9029,2.9028,2.9071,2.9074,2.9076,0,0,0,0,0,0,0,0,0,0,0,0,0,2.8941,2.8898,2.9001,2.8999,2.9,2.9047,2.9048,2.9049,2.9032,2.903,2.9029,2.9027,2.907,2.9073,2.9076,2.9127,0,0,2.9086,2.9088,0,0,0,0,0,0,0,0,2.8939,2.8945,2.8999,2.9,2.9,2.9032,2.9027,2.9075,2.9032,2.9019,2.9028,2.9027,2.906,2.9064,2.9075,2.9129,2.9131,2.9086,2.9088,2.909,2.9091,0,0,0,0,0,0,0,2.8936,2.8943,2.9019,2.9,2.9,2.8995,2.9,2.9036,2.9047,2.902,2.9019,2.9025,2.9059,2.9072,2.9076,2.9132,2.9086,2.9089,2.9091,2.9092,2.9231,2.9232,0,0,0,0,0,0,2.8933,2.8941,2.9018,2.9021,2.8965,2.8999,2.9004,2.9023,2.9047,2.9049,2.9027,2.9024,2.9068,2.9073,2.9078,2.914,2.909,2.9093,2.9095,2.9229,2.9231,2.9233,0,0,0,0,0,0,2.8931,2.894,2.9016,2.8981,2.899,2.9002,2.9024,2.9025,2.9038,2.9052,2.9053,2.9038,2.9067,2.9073,2.9116,2.9141,2.9094,2.9097,2.9227,2.923,2.9232,2.9263,0,0,0,0,0,0,2.8928,2.8939,2.8959,2.8981,2.8992,2.9054,2.9025,2.9027,2.9044,2.9042,2.9063,2.9065,2.9066,2.9111,2.9119,2.9144,2.9099,2.9225,2.9228,2.9231,2.926,2.9266,2.9272,0,0,0,0,0,2.8924,2.8965,2.896,2.8969,2.9017,2.9055,2.9061,2.9063,2.9046,2.9066,2.9075,2.9064,2.9137,2.9115,2.9124,2.9151,2.9223,2.9227,2.9231,2.9257,2.9265,2.9272,0,0,0,0,0,0,2.8943,2.8967,2.8963,2.9012,2.9032,2.9052,2.9077,2.9071,2.9095,2.9092,2.9092,2.9097,2.9141,2.915,2.9126,2.9202,2.9177,2.9183,2.9194,2.9202,2.9208,2.9205,2.9102,0,0,0,0,0,2.8953,2.8984,2.9003,2.9044,2.9055,2.9065,2.9081,2.9081,2.9101,2.9109,2.9121,2.914,2.9168,2.9185,2.9211,2.9261,2.9266,2.9284,2.929,2.9295,2.93,2.9329,2.9337,2.9246,2.9246,2.9246,0,0,2.8974,2.8991,2.901,2.9049,2.9064,2.9095,2.9072,2.9104,2.9127,2.9114,2.9155,2.9165,2.9186,2.9233,2.9254,2.9242,2.9327,2.9301,2.9304,2.9307,2.9333,2.9342,2.935,2.9249,2.9248,2.9248,0,0,2.9028,2.9044,2.9081,2.9098,2.9122,2.9129,2.9138,2.916,2.9167,2.9208,2.92,2.9226,2.9273,2.9289,2.9303,2.9365,2.9356,2.9374,2.9405,2.9433,2.944,2.9446,2.9469,2.9477,2.9379,2.9379,2.9379,0,2.905,2.9097,2.91,2.9135,2.9153,2.9144,2.9182,2.9197,2.9228,2.924,2.9227,2.9287,2.93,2.9351,2.9367,2.9378,2.9388,2.9371,2.9439,2.9445,2.9451,2.9473,2.9481,2.9381,2.938,2.938,2.938,0,2.9124,2.9157,2.9183,2.9216,2.9237,2.9272,2.928,2.9301,2.9299,2.9307,2.935,2.9367,2.9396,2.9409,2.9407,2.946,2.9452,2.9439,2.9414,2.9462,2.9482,2.949,2.9383,2.9383,2.9382,2.9382,0,0,2.9189,2.9225,2.9235,2.925,2.9278,2.9303,2.9338,2.9369,2.9387,2.9409,2.9438,2.9479,2.9468,2.9484,2.9484,2.9509,2.9558,2.9493,2.9493,2.9504,2.9618,2.9628,2.9637,2.9553,2.9554,2.9555,2.9616,0,2.9246,2.931,2.9315,2.9372,2.9402,2.9396,2.9427,2.9447,2.9456,2.9482,2.9491,2.9521,2.9503,2.9513,2.9537,2.9547,2.9581,2.9543,2.958,2.9581,2.9574,2.9648,2.9657,2.9714,2.9624,2.9626,2.9627,0,2.9319,2.9346,2.9407,2.9432,2.9445,2.9473,2.9502,2.9528,2.9551,2.9555,2.9575,2.9572,2.9608,2.9583,2.9633,2.9607,2.9622,2.963,2.9632,2.9635,2.9606,2.9653,2.9732,2.9741,2.9639,2.9638,2.9637,0,2.9362,2.9413,2.9456,2.9469,2.9499,2.9519,2.9532,2.9554,2.9573,2.9598,2.961,2.9639,2.9654,2.9676,2.9681,2.9662,2.9731,2.9706,2.9736,2.9736,2.975,2.9749,2.9833,2.976,2.976,2.976,2.976,0,2.9424,2.9461,2.9476,2.9502,2.9545,2.955,2.9591,2.9603,2.9622,2.9651,2.9646,2.9673,2.9678,2.9706,2.971,2.9751,2.9757,2.9762,2.9762,2.9762,2.9762,2.9772,2.9768,2.9762,2.9762,2.9761,2.9761,0,2.9477,2.9489,2.9536,2.9562,2.9569,2.9599,2.962,2.9645,2.9655,2.9691,2.9699,2.9713,2.9745,2.9753,2.9791,2.9794,2.9842,2.9839,2.9835,2.9835,2.9864,2.9861,2.9957,2.997,2.989,2.989,2.9891,0,2.9516,2.9545,2.9575,2.9595,2.9609,2.9641,2.9661,2.9667,2.9688,2.9717,2.9739,2.9771,2.9797,2.9849,2.9862,2.9891,2.9889,2.992,2.9893,2.9892,2.9889,2.9888,2.9891,2.9925,2.9926,2.9927,2.9927,0,2.9584,2.9589,2.9618,2.9651,2.9675,2.97,2.9724,2.974,2.975,2.9773,2.9807,2.9828,2.9868,2.99,2.993,2.9942,2.9937,2.9936,2.9945,2.9945,2.9941,2.9944,2.9849,2.9934,2.9933,2.9933,2.9932,2.9932,2.9632,2.9658,2.9684,2.9717,2.9736,2.9759,2.9785,2.9798,2.9827,2.9861,2.9863,2.99,2.9923,2.9963,2.9978,3.0006,2.9996,3.0009,3.0012,3.0014,3.0017,2.9937,3.0012,3.0012,3.0011,3.0011,3.0011,0,2.97,2.9716,2.9747,2.9782,2.9808,2.9803,2.9829,2.9851,2.9885,2.9907,2.9934,2.9974,3.0005,3.0021,3.0053,3.0073,3.0071,3.0081,3.0079,3.0082,3.0024,3.0014,3.0082,3.0082,3.0081,3.0081,3.0081,3.0081,2.9738,2.9783,2.9791,2.9845,2.9861,2.9899,2.9914,2.9935,2.9954,2.9999,3.0026,3.0037,3.0057,3.009,3.0119,3.0122,3.0134,3.0145,3.0148,3.0093,3.0086,3.0079,3.0069,3.0148,3.0148,3.0203,3.0204,3.0204]}]]